Year,Month,Day,Hour,Minute,Value (Times are PST for temperature in C)
2010,09,02,00,00,11.80
2010,09,02,00,01,11.80
2010,09,02,00,02,11.80
2010,09,02,00,03,11.80
2010,09,02,00,04,11.80
2010,09,02,00,05,11.70
2010,09,02,00,06,11.70
2010,09,02,00,07,11.70
2010,09,02,00,08,11.70
2010,09,02,00,09,11.70
2010,09,02,00,10,11.70
2010,09,02,00,11,11.70
2010,09,02,00,12,11.70
2010,09,02,00,13,11.70
2010,09,02,00,14,11.70
2010,09,02,00,15,11.70
2010,09,02,00,16,11.80
2010,09,02,00,17,11.80
2010,09,02,00,18,11.80
2010,09,02,00,19,11.80
2010,09,02,00,20,11.80
2010,09,02,00,21,11.80
2010,09,02,00,22,11.80
2010,09,02,00,23,11.80
2010,09,02,00,24,11.80
2010,09,02,00,25,11.80
2010,09,02,00,26,11.80
2010,09,02,00,27,11.80
2010,09,02,00,28,11.90
2010,09,02,00,29,11.90
2010,09,02,00,30,11.90
2010,09,02,00,31,11.90
2010,09,02,00,32,11.90
2010,09,02,00,33,11.90
2010,09,02,00,34,11.90
2010,09,02,00,35,11.80
2010,09,02,00,36,11.80
2010,09,02,00,37,11.80
2010,09,02,00,38,11.80
2010,09,02,00,39,11.80
2010,09,02,00,40,11.80
2010,09,02,00,41,11.80
2010,09,02,00,42,11.70
2010,09,02,00,43,11.70
2010,09,02,00,44,11.60
2010,09,02,00,45,11.60
2010,09,02,00,46,11.60
2010,09,02,00,47,11.60
2010,09,02,00,48,11.60
2010,09,02,00,49,11.60
2010,09,02,00,50,11.60
2010,09,02,00,51,11.60
2010,09,02,00,52,11.60
2010,09,02,00,53,11.60
2010,09,02,00,54,11.60
2010,09,02,00,55,11.50
2010,09,02,00,56,11.40
2010,09,02,00,57,11.40
2010,09,02,00,58,11.40
2010,09,02,00,59,11.40
2010,09,02,01,00,11.40
2010,09,02,01,01,11.40
2010,09,02,01,02,11.40
2010,09,02,01,03,11.40
2010,09,02,01,04,11.40
2010,09,02,01,05,11.40
2010,09,02,01,06,11.30
2010,09,02,01,07,11.30
2010,09,02,01,08,11.30
2010,09,02,01,09,11.20
2010,09,02,01,10,11.20
2010,09,02,01,11,11.20
2010,09,02,01,12,11.20
2010,09,02,01,13,11.20
2010,09,02,01,14,11.20
2010,09,02,01,15,11.10
2010,09,02,01,16,11.10
2010,09,02,01,17,11.10
2010,09,02,01,18,11.10
2010,09,02,01,19,11.10
2010,09,02,01,20,11.10
2010,09,02,01,21,11.10
2010,09,02,01,22,11.10
2010,09,02,01,23,11.10
2010,09,02,01,24,11.10
2010,09,02,01,25,11.10
2010,09,02,01,26,11.10
2010,09,02,01,27,11.10
2010,09,02,01,28,11.10
2010,09,02,01,29,11.10
2010,09,02,01,30,11.10
2010,09,02,01,31,11.10
2010,09,02,01,32,11.10
2010,09,02,01,33,11.10
2010,09,02,01,34,11.10
2010,09,02,01,35,11.00
2010,09,02,01,36,10.90
2010,09,02,01,37,10.90
2010,09,02,01,38,10.90
2010,09,02,01,39,10.90
2010,09,02,01,40,10.90
2010,09,02,01,41,10.90
2010,09,02,01,42,10.90
2010,09,02,01,43,10.90
2010,09,02,01,44,10.90
2010,09,02,01,45,10.90
2010,09,02,01,46,10.90
2010,09,02,01,47,10.90
2010,09,02,01,48,10.90
2010,09,02,01,49,10.90
2010,09,02,01,50,10.90
2010,09,02,01,51,10.90
2010,09,02,01,52,10.80
2010,09,02,01,53,10.80
2010,09,02,01,54,10.80
2010,09,02,01,55,10.80
2010,09,02,01,56,10.80
2010,09,02,01,57,10.80
2010,09,02,01,58,10.80
2010,09,02,01,59,10.80
2010,09,02,02,00,10.80
2010,09,02,02,01,10.70
2010,09,02,02,02,10.70
2010,09,02,02,03,10.70
2010,09,02,02,04,10.70
2010,09,02,02,05,10.60
2010,09,02,02,06,10.60
2010,09,02,02,07,10.60
2010,09,02,02,08,10.60
2010,09,02,02,09,10.60
2010,09,02,02,10,10.60
2010,09,02,02,11,10.60
2010,09,02,02,12,10.60
2010,09,02,02,13,10.70
2010,09,02,02,14,10.70
2010,09,02,02,15,10.70
2010,09,02,02,16,10.70
2010,09,02,02,17,10.70
2010,09,02,02,18,10.60
2010,09,02,02,19,10.60
2010,09,02,02,20,10.60
2010,09,02,02,21,10.60
2010,09,02,02,22,10.60
2010,09,02,02,23,10.60
2010,09,02,02,24,10.60
2010,09,02,02,25,10.60
2010,09,02,02,26,10.60
2010,09,02,02,27,10.60
2010,09,02,02,28,10.60
2010,09,02,02,29,10.60
2010,09,02,02,30,10.60
2010,09,02,02,31,10.60
2010,09,02,02,32,10.60
2010,09,02,02,33,10.50
2010,09,02,02,34,10.40
2010,09,02,02,35,10.40
2010,09,02,02,36,10.40
2010,09,02,02,37,10.40
2010,09,02,02,38,10.40
2010,09,02,02,39,10.40
2010,09,02,02,40,10.40
2010,09,02,02,41,10.40
2010,09,02,02,42,10.30
2010,09,02,02,43,10.30
2010,09,02,02,44,10.30
2010,09,02,02,45,10.30
2010,09,02,02,46,10.30
2010,09,02,02,47,10.30
2010,09,02,02,48,10.30
2010,09,02,02,49,10.30
2010,09,02,02,50,10.30
2010,09,02,02,51,10.30
2010,09,02,02,52,10.30
2010,09,02,02,53,10.30
2010,09,02,02,54,10.30
2010,09,02,02,55,10.30
2010,09,02,02,56,10.40
2010,09,02,02,57,10.40
2010,09,02,02,58,10.40
2010,09,02,02,59,10.40
2010,09,02,03,00,10.40
2010,09,02,03,01,10.60
2010,09,02,03,02,10.60
2010,09,02,03,03,10.60
2010,09,02,03,04,10.60
2010,09,02,03,05,10.60
2010,09,02,03,06,10.60
2010,09,02,03,07,10.50
2010,09,02,03,08,10.40
2010,09,02,03,09,10.40
2010,09,02,03,10,10.40
2010,09,02,03,11,10.40
2010,09,02,03,12,10.40
2010,09,02,03,13,10.40
2010,09,02,03,14,10.40
2010,09,02,03,15,10.40
2010,09,02,03,16,10.40
2010,09,02,03,17,10.40
2010,09,02,03,18,10.40
2010,09,02,03,19,10.40
2010,09,02,03,20,10.40
2010,09,02,03,21,10.40
2010,09,02,03,22,10.40
2010,09,02,03,23,10.40
2010,09,02,03,24,10.40
2010,09,02,03,25,10.40
2010,09,02,03,26,10.30
2010,09,02,03,27,10.30
2010,09,02,03,28,10.30
2010,09,02,03,29,10.30
2010,09,02,03,30,10.30
2010,09,02,03,31,10.30
2010,09,02,03,32,10.30
2010,09,02,03,33,10.30
2010,09,02,03,34,10.30
2010,09,02,03,35,10.20
2010,09,02,03,36,10.20
2010,09,02,03,37,10.20
2010,09,02,03,38,10.20
2010,09,02,03,39,10.20
2010,09,02,03,40,10.20
2010,09,02,03,41,10.20
2010,09,02,03,42,10.20
2010,09,02,03,43,10.20
2010,09,02,03,44,10.20
2010,09,02,03,45,10.20
2010,09,02,03,46,10.20
2010,09,02,03,47,10.20
2010,09,02,03,48,10.20
2010,09,02,03,49,10.20
2010,09,02,03,50,10.20
2010,09,02,03,51,10.20
2010,09,02,03,52,10.20
2010,09,02,03,53,10.20
2010,09,02,03,54,10.30
2010,09,02,03,55,10.30
2010,09,02,03,56,10.30
2010,09,02,03,57,10.30
2010,09,02,03,58,10.40
2010,09,02,03,59,10.40
2010,09,02,04,00,10.40
2010,09,02,04,01,10.40
2010,09,02,04,02,10.40
2010,09,02,04,03,10.40
2010,09,02,04,04,10.40
2010,09,02,04,05,10.40
2010,09,02,04,06,10.40
2010,09,02,04,07,10.40
2010,09,02,04,08,10.40
2010,09,02,04,09,10.40
2010,09,02,04,10,10.40
2010,09,02,04,11,10.40
2010,09,02,04,12,10.40
2010,09,02,04,13,10.50
2010,09,02,04,14,10.60
2010,09,02,04,15,10.60
2010,09,02,04,16,10.60
2010,09,02,04,17,10.60
2010,09,02,04,18,10.60
2010,09,02,04,19,10.60
2010,09,02,04,20,10.60
2010,09,02,04,21,10.60
2010,09,02,04,22,10.70
2010,09,02,04,23,10.70
2010,09,02,04,24,10.70
2010,09,02,04,25,10.70
2010,09,02,04,26,10.70
2010,09,02,04,27,10.70
2010,09,02,04,28,10.60
2010,09,02,04,29,10.60
2010,09,02,04,30,10.60
2010,09,02,04,31,10.60
2010,09,02,04,32,10.60
2010,09,02,04,33,10.60
2010,09,02,04,34,10.50
2010,09,02,04,35,10.40
2010,09,02,04,36,10.40
2010,09,02,04,37,10.40
2010,09,02,04,38,10.40
2010,09,02,04,39,10.40
2010,09,02,04,40,10.30
2010,09,02,04,41,10.30
2010,09,02,04,42,10.20
2010,09,02,04,43,10.20
2010,09,02,04,44,10.20
2010,09,02,04,45,10.10
2010,09,02,04,46,10.10
2010,09,02,04,47,10.10
2010,09,02,04,48,10.10
2010,09,02,04,49,10.10
2010,09,02,04,50,10.10
2010,09,02,04,51,10.10
2010,09,02,04,52,10.00
2010,09,02,04,53,9.90
2010,09,02,04,54,9.90
2010,09,02,04,55,9.90
2010,09,02,04,56,9.90
2010,09,02,04,57,9.90
2010,09,02,04,58,9.90
2010,09,02,04,59,9.90
2010,09,02,05,00,9.90
2010,09,02,05,01,9.90
2010,09,02,05,02,9.90
2010,09,02,05,03,9.90
2010,09,02,05,04,9.90
2010,09,02,05,05,9.80
2010,09,02,05,06,9.80
2010,09,02,05,07,9.70
2010,09,02,05,08,9.70
2010,09,02,05,09,9.70
2010,09,02,05,10,9.70
2010,09,02,05,11,9.70
2010,09,02,05,12,9.70
2010,09,02,05,13,9.60
2010,09,02,05,14,9.60
2010,09,02,05,15,9.50
2010,09,02,05,16,9.50
2010,09,02,05,17,9.50
2010,09,02,05,18,9.50
2010,09,02,05,19,9.50
2010,09,02,05,20,9.50
2010,09,02,05,21,9.50
2010,09,02,05,22,9.50
2010,09,02,05,23,9.50
2010,09,02,05,24,9.60
2010,09,02,05,25,9.60
2010,09,02,05,26,9.70
2010,09,02,05,27,9.70
2010,09,02,05,28,9.70
2010,09,02,05,29,9.70
2010,09,02,05,30,9.80
2010,09,02,05,31,9.80
2010,09,02,05,32,9.90
2010,09,02,05,33,9.90
2010,09,02,05,34,9.90
2010,09,02,05,35,10.10
2010,09,02,05,36,10.10
2010,09,02,05,37,10.10
2010,09,02,05,38,10.20
2010,09,02,05,39,10.20
2010,09,02,05,40,10.20
2010,09,02,05,41,10.20
2010,09,02,05,42,10.20
2010,09,02,05,43,10.30
2010,09,02,05,44,10.30
2010,09,02,05,45,10.30
2010,09,02,05,46,10.30
2010,09,02,05,47,10.30
2010,09,02,05,48,10.30
2010,09,02,05,49,10.30
2010,09,02,05,50,10.40
2010,09,02,05,51,10.40
2010,09,02,05,52,10.40
2010,09,02,05,53,10.40
2010,09,02,05,54,10.40
2010,09,02,05,55,10.40
2010,09,02,05,56,10.40
2010,09,02,05,57,10.40
2010,09,02,05,58,10.40
2010,09,02,05,59,10.40
2010,09,02,06,00,10.40
2010,09,02,06,01,10.40
2010,09,02,06,02,10.40
2010,09,02,06,03,10.40
2010,09,02,06,04,10.40
2010,09,02,06,05,10.40
2010,09,02,06,06,10.40
2010,09,02,06,07,10.40
2010,09,02,06,08,10.40
2010,09,02,06,09,10.40
2010,09,02,06,10,10.40
2010,09,02,06,11,10.40
2010,09,02,06,12,10.40
2010,09,02,06,13,10.40
2010,09,02,06,14,10.40
2010,09,02,06,15,10.40
2010,09,02,06,16,10.40
2010,09,02,06,17,10.40
2010,09,02,06,18,10.40
2010,09,02,06,19,10.40
2010,09,02,06,20,10.40
2010,09,02,06,21,10.40
2010,09,02,06,22,10.40
2010,09,02,06,23,10.40
2010,09,02,06,24,10.30
2010,09,02,06,25,10.30
2010,09,02,06,26,10.30
2010,09,02,06,27,10.30
2010,09,02,06,28,10.30
2010,09,02,06,29,10.30
2010,09,02,06,30,10.30
2010,09,02,06,31,10.30
2010,09,02,06,32,10.20
2010,09,02,06,33,10.20
2010,09,02,06,34,10.20
2010,09,02,06,35,10.20
2010,09,02,06,36,10.20
2010,09,02,06,37,10.20
2010,09,02,06,38,10.20
2010,09,02,06,39,10.20
2010,09,02,06,40,10.20
2010,09,02,06,41,10.20
2010,09,02,06,42,10.20
2010,09,02,06,43,10.20
2010,09,02,06,44,10.20
2010,09,02,06,45,10.30
2010,09,02,06,46,10.30
2010,09,02,06,47,10.30
2010,09,02,06,48,10.30
2010,09,02,06,49,10.30
2010,09,02,06,50,10.30
2010,09,02,06,51,10.40
2010,09,02,06,52,10.40
2010,09,02,06,53,10.40
2010,09,02,06,54,10.40
2010,09,02,06,55,10.40
2010,09,02,06,56,10.40
2010,09,02,06,57,10.40
2010,09,02,06,58,10.40
2010,09,02,06,59,10.40
2010,09,02,07,00,10.40
2010,09,02,07,01,10.40
2010,09,02,07,02,10.40
2010,09,02,07,03,10.40
2010,09,02,07,04,10.40
2010,09,02,07,05,10.40
2010,09,02,07,06,10.40
2010,09,02,07,07,10.40
2010,09,02,07,08,10.40
2010,09,02,07,09,10.40
2010,09,02,07,10,10.40
2010,09,02,07,11,10.40
2010,09,02,07,12,10.40
2010,09,02,07,13,10.40
2010,09,02,07,14,10.50
2010,09,02,07,15,10.60
2010,09,02,07,16,10.60
2010,09,02,07,17,10.60
2010,09,02,07,18,10.60
2010,09,02,07,19,10.60
2010,09,02,07,20,10.60
2010,09,02,07,21,10.60
2010,09,02,07,22,10.60
2010,09,02,07,23,10.60
2010,09,02,07,24,10.60
2010,09,02,07,25,10.70
2010,09,02,07,26,10.70
2010,09,02,07,27,10.70
2010,09,02,07,28,10.70
2010,09,02,07,29,10.80
2010,09,02,07,30,10.80
2010,09,02,07,31,10.90
2010,09,02,07,32,10.90
2010,09,02,07,33,10.90
2010,09,02,07,34,10.90
2010,09,02,07,35,10.90
2010,09,02,07,36,11.10
2010,09,02,07,37,11.10
2010,09,02,07,38,11.10
2010,09,02,07,39,11.10
2010,09,02,07,40,11.20
2010,09,02,07,41,11.20
2010,09,02,07,42,11.30
2010,09,02,07,43,11.40
2010,09,02,07,44,11.40
2010,09,02,07,45,11.40
2010,09,02,07,46,11.60
2010,09,02,07,47,11.60
2010,09,02,07,48,11.60
2010,09,02,07,49,11.70
2010,09,02,07,50,11.80
2010,09,02,07,51,11.80
2010,09,02,07,52,11.90
2010,09,02,07,53,11.90
2010,09,02,07,54,12.00
2010,09,02,07,55,12.10
2010,09,02,07,56,12.10
2010,09,02,07,57,12.20
2010,09,02,07,58,12.30
2010,09,02,07,59,12.30
2010,09,02,08,00,12.30
2010,09,02,08,01,12.40
2010,09,02,08,02,12.50
2010,09,02,08,03,12.60
2010,09,02,08,04,12.60
2010,09,02,08,05,12.70
2010,09,02,08,06,12.70
2010,09,02,08,07,12.80
2010,09,02,08,08,12.80
2010,09,02,08,09,12.80
2010,09,02,08,10,12.80
2010,09,02,08,11,12.80
2010,09,02,08,12,12.80
2010,09,02,08,13,12.90
2010,09,02,08,14,12.90
2010,09,02,08,15,13.00
2010,09,02,08,16,13.00
2010,09,02,08,17,13.10
2010,09,02,08,18,13.10
2010,09,02,08,19,13.20
2010,09,02,08,20,13.20
2010,09,02,08,21,13.20
2010,09,02,08,22,13.10
2010,09,02,08,23,13.10
2010,09,02,08,24,13.10
2010,09,02,08,25,13.00
2010,09,02,08,26,13.00
2010,09,02,08,27,13.00
2010,09,02,08,28,13.00
2010,09,02,08,29,13.00
2010,09,02,08,30,13.10
2010,09,02,08,31,13.10
2010,09,02,08,32,13.10
2010,09,02,08,33,13.20
2010,09,02,08,34,13.20
2010,09,02,08,35,13.30
2010,09,02,08,36,13.30
2010,09,02,08,37,13.40
2010,09,02,08,38,13.40
2010,09,02,08,39,13.50
2010,09,02,08,40,13.60
2010,09,02,08,41,13.70
2010,09,02,08,42,13.70
2010,09,02,08,43,13.70
2010,09,02,08,44,13.80
2010,09,02,08,45,13.90
2010,09,02,08,46,13.90
2010,09,02,08,47,13.90
2010,09,02,08,48,14.00
2010,09,02,08,49,14.00
2010,09,02,08,50,14.10
2010,09,02,08,51,14.10
2010,09,02,08,52,14.20
2010,09,02,08,53,14.20
2010,09,02,08,54,14.30
2010,09,02,08,55,14.30
2010,09,02,08,56,14.30
2010,09,02,08,57,14.40
2010,09,02,08,58,14.40
2010,09,02,08,59,14.50
2010,09,02,09,00,14.50
2010,09,02,09,01,14.60
2010,09,02,09,02,14.60
2010,09,02,09,03,14.70
2010,09,02,09,04,14.80
2010,09,02,09,05,14.80
2010,09,02,09,06,14.80
2010,09,02,09,07,14.90
2010,09,02,09,08,14.90
2010,09,02,09,09,15.00
2010,09,02,09,10,15.00
2010,09,02,09,11,15.00
2010,09,02,09,12,15.10
2010,09,02,09,13,15.10
2010,09,02,09,14,15.10
2010,09,02,09,15,15.10
2010,09,02,09,16,15.10
2010,09,02,09,17,15.10
2010,09,02,09,18,15.10
2010,09,02,09,19,15.10
2010,09,02,09,20,15.10
2010,09,02,09,21,15.10
2010,09,02,09,22,15.20
2010,09,02,09,23,15.20
2010,09,02,09,24,15.20
2010,09,02,09,25,15.30
2010,09,02,09,26,15.30
2010,09,02,09,27,15.30
2010,09,02,09,28,15.30
2010,09,02,09,29,15.40
2010,09,02,09,30,15.50
2010,09,02,09,31,15.50
2010,09,02,09,32,15.60
2010,09,02,09,33,15.60
2010,09,02,09,34,15.70
2010,09,02,09,35,15.70
2010,09,02,09,36,15.70
2010,09,02,09,37,15.70
2010,09,02,09,38,15.80
2010,09,02,09,39,15.80
2010,09,02,09,40,15.70
2010,09,02,09,41,15.70
2010,09,02,09,42,15.80
2010,09,02,09,43,15.80
2010,09,02,09,44,15.80
2010,09,02,09,45,15.80
2010,09,02,09,46,15.90
2010,09,02,09,47,15.90
2010,09,02,09,48,15.90
2010,09,02,09,49,15.90
2010,09,02,09,50,15.90
2010,09,02,09,51,15.90
2010,09,02,09,52,16.00
2010,09,02,09,53,16.00
2010,09,02,09,54,16.10
2010,09,02,09,55,16.10
2010,09,02,09,56,16.20
2010,09,02,09,57,16.20
2010,09,02,09,58,16.30
2010,09,02,09,59,16.40
2010,09,02,10,00,16.40
2010,09,02,10,01,16.40
2010,09,02,10,02,16.40
2010,09,02,10,03,16.50
2010,09,02,10,04,16.40
2010,09,02,10,05,16.40
2010,09,02,10,06,16.30
2010,09,02,10,07,16.20
2010,09,02,10,08,16.10
2010,09,02,10,09,16.10
2010,09,02,10,10,16.00
2010,09,02,10,11,15.90
2010,09,02,10,12,15.90
2010,09,02,10,13,15.80
2010,09,02,10,14,15.80
2010,09,02,10,15,15.80
2010,09,02,10,16,15.80
2010,09,02,10,17,15.90
2010,09,02,10,18,15.90
2010,09,02,10,19,15.90
2010,09,02,10,20,16.00
2010,09,02,10,21,16.10
2010,09,02,10,22,16.10
2010,09,02,10,23,16.10
2010,09,02,10,24,16.20
2010,09,02,10,25,16.20
2010,09,02,10,26,16.30
2010,09,02,10,27,16.30
2010,09,02,10,28,16.30
2010,09,02,10,29,16.40
2010,09,02,10,30,16.40
2010,09,02,10,31,16.40
2010,09,02,10,32,16.40
2010,09,02,10,33,16.40
2010,09,02,10,34,16.40
2010,09,02,10,35,16.40
2010,09,02,10,36,16.40
2010,09,02,10,37,16.60
2010,09,02,10,38,16.70
2010,09,02,10,39,16.70
2010,09,02,10,40,16.80
2010,09,02,10,41,16.90
2010,09,02,10,42,16.90
2010,09,02,10,43,16.90
2010,09,02,10,44,16.90
2010,09,02,10,45,16.90
2010,09,02,10,46,16.90
2010,09,02,10,47,16.80
2010,09,02,10,48,16.90
2010,09,02,10,49,16.90
2010,09,02,10,50,16.90
2010,09,02,10,51,16.90
2010,09,02,10,52,16.90
2010,09,02,10,53,17.00
2010,09,02,10,54,17.00
2010,09,02,10,55,17.00
2010,09,02,10,56,17.00
2010,09,02,10,57,16.90
2010,09,02,10,58,16.90
2010,09,02,10,59,17.00
2010,09,02,11,00,17.00
2010,09,02,11,01,17.20
2010,09,02,11,02,17.20
2010,09,02,11,03,17.30
2010,09,02,11,04,17.30
2010,09,02,11,05,17.30
2010,09,02,11,06,17.30
2010,09,02,11,07,17.30
2010,09,02,11,08,17.30
2010,09,02,11,09,17.30
2010,09,02,11,10,17.30
2010,09,02,11,11,17.20
2010,09,02,11,12,17.20
2010,09,02,11,13,17.20
2010,09,02,11,14,17.10
2010,09,02,11,15,17.10
2010,09,02,11,16,17.10
2010,09,02,11,17,17.10
2010,09,02,11,18,17.10
2010,09,02,11,19,17.10
2010,09,02,11,20,17.10
2010,09,02,11,21,17.10
2010,09,02,11,22,17.10
2010,09,02,11,23,17.10
2010,09,02,11,24,17.10
2010,09,02,11,25,17.00
2010,09,02,11,26,17.00
2010,09,02,11,27,16.90
2010,09,02,11,28,16.90
2010,09,02,11,29,17.00
2010,09,02,11,30,17.00
2010,09,02,11,31,17.00
2010,09,02,11,32,17.00
2010,09,02,11,33,17.10
2010,09,02,11,34,17.20
2010,09,02,11,35,17.20
2010,09,02,11,36,17.30
2010,09,02,11,37,17.30
2010,09,02,11,38,17.30
2010,09,02,11,39,17.30
2010,09,02,11,40,17.30
2010,09,02,11,41,17.30
2010,09,02,11,42,17.30
2010,09,02,11,43,17.20
2010,09,02,11,44,17.20
2010,09,02,11,45,17.20
2010,09,02,11,46,17.10
2010,09,02,11,47,17.10
2010,09,02,11,48,17.00
2010,09,02,11,49,16.90
2010,09,02,11,50,16.90
2010,09,02,11,51,17.00
2010,09,02,11,52,17.00
2010,09,02,11,53,17.10
2010,09,02,11,54,17.10
2010,09,02,11,55,17.10
2010,09,02,11,56,17.10
2010,09,02,11,57,17.20
2010,09,02,11,58,17.20
2010,09,02,11,59,17.10
2010,09,02,12,00,17.10
2010,09,02,12,01,17.10
2010,09,02,12,02,17.10
2010,09,02,12,03,17.20
2010,09,02,12,04,17.20
2010,09,02,12,05,17.20
2010,09,02,12,06,17.20
2010,09,02,12,07,17.20
2010,09,02,12,08,17.20
2010,09,02,12,09,17.20
2010,09,02,12,10,17.30
2010,09,02,12,11,17.30
2010,09,02,12,12,17.30
2010,09,02,12,13,17.40
2010,09,02,12,14,17.40
2010,09,02,12,15,17.40
2010,09,02,12,16,17.40
2010,09,02,12,17,17.50
2010,09,02,12,18,17.50
2010,09,02,12,19,17.70
2010,09,02,12,20,17.80
2010,09,02,12,21,17.80
2010,09,02,12,22,17.90
2010,09,02,12,23,17.90
2010,09,02,12,24,18.00
2010,09,02,12,25,18.10
2010,09,02,12,26,18.10
2010,09,02,12,27,18.20
2010,09,02,12,28,18.20
2010,09,02,12,29,18.20
2010,09,02,12,30,18.20
2010,09,02,12,31,18.30
2010,09,02,12,32,18.30
2010,09,02,12,33,18.30
2010,09,02,12,34,18.30
2010,09,02,12,35,18.40
2010,09,02,12,36,18.40
2010,09,02,12,37,18.40
2010,09,02,12,38,18.40
2010,09,02,12,39,18.50
2010,09,02,12,40,18.50
2010,09,02,12,41,18.50
2010,09,02,12,42,18.50
2010,09,02,12,43,18.60
2010,09,02,12,44,18.60
2010,09,02,12,45,18.80
2010,09,02,12,46,18.90
2010,09,02,12,47,19.00
2010,09,02,12,48,19.10
2010,09,02,12,49,19.10
2010,09,02,12,50,19.20
2010,09,02,12,51,19.20
2010,09,02,12,52,19.20
2010,09,02,12,53,19.30
2010,09,02,12,54,19.30
2010,09,02,12,55,19.40
2010,09,02,12,56,19.50
2010,09,02,12,57,19.60
2010,09,02,12,58,19.60
2010,09,02,12,59,19.70
2010,09,02,13,00,19.80
2010,09,02,13,01,19.80
2010,09,02,13,02,19.80
2010,09,02,13,03,19.80
2010,09,02,13,04,19.80
2010,09,02,13,05,19.90
2010,09,02,13,06,19.80
2010,09,02,13,07,19.90
2010,09,02,13,08,19.90
2010,09,02,13,09,19.90
2010,09,02,13,10,19.90
2010,09,02,13,11,19.90
2010,09,02,13,12,19.90
2010,09,02,13,13,19.90
2010,09,02,13,14,19.90
2010,09,02,13,15,19.80
2010,09,02,13,16,19.70
2010,09,02,13,17,19.70
2010,09,02,13,18,19.60
2010,09,02,13,19,19.70
2010,09,02,13,20,19.70
2010,09,02,13,21,19.70
2010,09,02,13,22,19.70
2010,09,02,13,23,19.70
2010,09,02,13,24,19.80
2010,09,02,13,25,19.90
2010,09,02,13,26,19.90
2010,09,02,13,27,19.90
2010,09,02,13,28,19.70
2010,09,02,13,29,19.50
2010,09,02,13,30,19.50
2010,09,02,13,31,19.50
2010,09,02,13,32,19.30
2010,09,02,13,33,19.30
2010,09,02,13,34,19.40
2010,09,02,13,35,19.40
2010,09,02,13,36,19.50
2010,09,02,13,37,19.50
2010,09,02,13,38,19.50
2010,09,02,13,39,19.50
2010,09,02,13,40,19.60
2010,09,02,13,41,19.60
2010,09,02,13,42,19.60
2010,09,02,13,43,19.60
2010,09,02,13,44,19.50
2010,09,02,13,45,19.50
2010,09,02,13,46,19.50
2010,09,02,13,47,19.60
2010,09,02,13,48,19.50
2010,09,02,13,49,19.50
2010,09,02,13,50,19.50
2010,09,02,13,51,19.60
2010,09,02,13,52,19.70
2010,09,02,13,53,19.90
2010,09,02,13,54,20.00
2010,09,02,13,55,20.10
2010,09,02,13,56,20.20
2010,09,02,13,57,20.10
2010,09,02,13,58,20.10
2010,09,02,13,59,20.20
2010,09,02,14,00,20.20
2010,09,02,14,01,20.20
2010,09,02,14,02,20.20
2010,09,02,14,03,20.20
2010,09,02,14,04,20.20
2010,09,02,14,05,20.30
2010,09,02,14,06,20.40
2010,09,02,14,07,20.40
2010,09,02,14,08,20.40
2010,09,02,14,09,20.30
2010,09,02,14,10,20.20
2010,09,02,14,11,20.30
2010,09,02,14,12,20.50
2010,09,02,14,13,20.50
2010,09,02,14,14,20.60
2010,09,02,14,15,20.70
2010,09,02,14,16,20.70
2010,09,02,14,17,20.70
2010,09,02,14,18,20.70
2010,09,02,14,19,20.70
2010,09,02,14,20,20.60
2010,09,02,14,21,20.60
2010,09,02,14,22,20.60
2010,09,02,14,23,20.50
2010,09,02,14,24,20.50
2010,09,02,14,25,20.40
2010,09,02,14,26,20.40
2010,09,02,14,27,20.30
2010,09,02,14,28,20.30
2010,09,02,14,29,20.30
2010,09,02,14,30,20.30
2010,09,02,14,31,20.50
2010,09,02,14,32,20.50
2010,09,02,14,33,20.60
2010,09,02,14,34,20.70
2010,09,02,14,35,20.80
2010,09,02,14,36,20.80
2010,09,02,14,37,20.80
2010,09,02,14,38,20.90
2010,09,02,14,39,20.90
2010,09,02,14,40,20.90
2010,09,02,14,41,20.90
2010,09,02,14,42,20.90
2010,09,02,14,43,20.90
2010,09,02,14,44,20.80
2010,09,02,14,45,20.80
2010,09,02,14,46,20.80
2010,09,02,14,47,20.80
2010,09,02,14,48,20.80
2010,09,02,14,49,20.80
2010,09,02,14,50,20.80
2010,09,02,14,51,20.80
2010,09,02,14,52,20.80
2010,09,02,14,53,20.90
2010,09,02,14,54,21.00
2010,09,02,14,55,21.00
2010,09,02,14,56,20.90
2010,09,02,14,57,20.70
2010,09,02,14,58,20.70
2010,09,02,14,59,20.60
2010,09,02,15,00,20.60
2010,09,02,15,01,20.60
2010,09,02,15,02,20.50
2010,09,02,15,03,20.50
2010,09,02,15,04,20.50
2010,09,02,15,05,20.60
2010,09,02,15,06,20.50
2010,09,02,15,07,20.50
2010,09,02,15,08,20.50
2010,09,02,15,09,20.60
2010,09,02,15,10,20.60
2010,09,02,15,11,20.70
2010,09,02,15,12,20.70
2010,09,02,15,13,20.70
2010,09,02,15,14,20.60
2010,09,02,15,15,20.50
2010,09,02,15,16,20.50
2010,09,02,15,17,20.60
2010,09,02,15,18,20.60
2010,09,02,15,19,20.60
2010,09,02,15,20,20.60
2010,09,02,15,21,20.60
2010,09,02,15,22,20.60
2010,09,02,15,23,20.60
2010,09,02,15,24,20.70
2010,09,02,15,25,20.70
2010,09,02,15,26,20.80
2010,09,02,15,27,20.80
2010,09,02,15,28,20.90
2010,09,02,15,29,20.90
2010,09,02,15,30,20.90
2010,09,02,15,31,20.90
2010,09,02,15,32,21.00
2010,09,02,15,33,21.00
2010,09,02,15,34,21.00
2010,09,02,15,35,21.00
2010,09,02,15,36,20.90
2010,09,02,15,37,20.80
2010,09,02,15,38,20.80
2010,09,02,15,39,20.80
2010,09,02,15,40,20.80
2010,09,02,15,41,20.80
2010,09,02,15,42,20.80
2010,09,02,15,43,20.90
2010,09,02,15,44,20.90
2010,09,02,15,45,20.90
2010,09,02,15,46,20.90
2010,09,02,15,47,21.00
2010,09,02,15,48,21.00
2010,09,02,15,49,21.00
2010,09,02,15,50,21.00
2010,09,02,15,51,21.10
2010,09,02,15,52,21.10
2010,09,02,15,53,21.20
2010,09,02,15,54,21.10
2010,09,02,15,55,21.10
2010,09,02,15,56,21.10
2010,09,02,15,57,21.10
2010,09,02,15,58,21.10
2010,09,02,15,59,21.10
2010,09,02,16,00,21.00
2010,09,02,16,01,21.00
2010,09,02,16,02,21.00
2010,09,02,16,03,21.00
2010,09,02,16,04,21.10
2010,09,02,16,05,21.10
2010,09,02,16,06,21.20
2010,09,02,16,07,21.20
2010,09,02,16,08,21.20
2010,09,02,16,09,21.20
2010,09,02,16,10,21.30
2010,09,02,16,11,21.20
2010,09,02,16,12,21.30
2010,09,02,16,13,21.30
2010,09,02,16,14,21.20
2010,09,02,16,15,21.20
2010,09,02,16,16,21.20
2010,09,02,16,17,21.20
2010,09,02,16,18,21.30
2010,09,02,16,19,21.30
2010,09,02,16,20,21.30
2010,09,02,16,21,21.30
2010,09,02,16,22,21.40
2010,09,02,16,23,21.50
2010,09,02,16,24,21.60
2010,09,02,16,25,21.60
2010,09,02,16,26,21.60
2010,09,02,16,27,21.60
2010,09,02,16,28,21.60
2010,09,02,16,29,21.60
2010,09,02,16,30,21.60
2010,09,02,16,31,21.60
2010,09,02,16,32,21.60
2010,09,02,16,33,21.60
2010,09,02,16,34,21.60
2010,09,02,16,35,21.60
2010,09,02,16,36,21.60
2010,09,02,16,37,21.50
2010,09,02,16,38,21.40
2010,09,02,16,39,21.30
2010,09,02,16,40,21.30
2010,09,02,16,41,21.20
2010,09,02,16,42,21.20
2010,09,02,16,43,21.10
2010,09,02,16,44,21.10
2010,09,02,16,45,21.10
2010,09,02,16,46,21.10
2010,09,02,16,47,21.10
2010,09,02,16,48,21.10
2010,09,02,16,49,21.10
2010,09,02,16,50,21.10
2010,09,02,16,51,21.00
2010,09,02,16,52,21.00
2010,09,02,16,53,21.00
2010,09,02,16,54,21.00
2010,09,02,16,55,21.00
2010,09,02,16,56,21.00
2010,09,02,16,57,20.90
2010,09,02,16,58,20.80
2010,09,02,16,59,20.80
2010,09,02,17,00,20.80
2010,09,02,17,01,20.80
2010,09,02,17,02,20.80
2010,09,02,17,03,20.80
2010,09,02,17,04,20.80
2010,09,02,17,05,20.80
2010,09,02,17,06,20.80
2010,09,02,17,07,20.80
2010,09,02,17,08,20.80
2010,09,02,17,09,20.90
2010,09,02,17,10,20.90
2010,09,02,17,11,21.00
2010,09,02,17,12,21.00
2010,09,02,17,13,21.10
2010,09,02,17,14,21.20
2010,09,02,17,15,21.20
2010,09,02,17,16,21.20
2010,09,02,17,17,21.20
2010,09,02,17,18,21.30
2010,09,02,17,19,21.20
2010,09,02,17,20,21.20
2010,09,02,17,21,21.10